Regional Weather Roundup
Issued by NWS

Home | Current Version | Previous Version | Graphics & Text | Print | Product List | Glossary On
Versions: 1 2 3 4 5 6 7 8 9 10 11 12 13 14 15 16 17 18 19 20 21 22 23 24 25 26 27 28 29 30 31 32 33 34 35 36 37 38 39 40 41 42 43 44 45 46 47 48 49 50
000
ASUS43 KOAX 300710
RWRNE

WEATHER ROUNDUP FOR NEBRASKA
NATIONAL WEATHER SERVICE OMAHA NE
200 AM CDT SAT AUG 30 2014

NOTES: SATELLITE DATA IS BEING USED TO AUGMENT CLOUD COVER ABOVE
       12000 FEET.
       "FAIR" INDICATES FEW OR NO CLOUDS BELOW 12,000 FEET WITH NO
       SIGNIFICANT WEATHER AND/OR OBSTRUCTIONS TO VISIBILITY.

  * THESE STATIONS DO NOT REPORT WEATHER SUCH AS RAIN...SNOW OR FOG.

NEZ001>004-019>022-054>056-300800-
NEBRASKA PANHANDLE

CITY           SKY/WX    TMP DP  RH WIND       PRES   REMARKS
SCOTTSBLUFF    CLEAR     58  55  90 E6        30.07F
ALLIANCE       MOCLDY    55  53  93 SW7       30.07S
CHADRON        CLEAR     55  53  93 CALM      30.02F
KIMBALL        CLEAR     57  50  78 SE6       30.12S
SIDNEY         PTCLDY    58  53  84 S7        30.11F
$$

NEZ057>060-069>072-079>082-300800-
SOUTHWEST NEBRASKA

CITY           SKY/WX    TMP DP  RH WIND       PRES   REMARKS
NORTH PLATTE   CLEAR     57  55  93 NW6       30.02F
IMPERIAL       PTCLDY    61  56  83 CALM      30.05F
LEXINGTON      CLEAR     60  58  94 NW3       29.99S
MCCOOK         CLEAR     64  60  87 CALM      30.01S
OGALLALA       CLEAR     55  54  94 CALM      30.05S
$$

NEZ005>010-023>029-035>040-094-300800-
NORTH CENTRAL NEBRASKA

CITY           SKY/WX    TMP DP  RH WIND       PRES   REMARKS
VALENTINE      CLEAR     56  54  93 NW3       30.00S
AINSWORTH      CLEAR     58  55  88 W5        29.99S
BROKEN BOW     CLEAR     61  57  87 N3        29.98S
O`NEILL        PTCLDY    62  60  94 NW7       29.95S
ORD            CLEAR     62  59  90 NW5       29.94S
THEDFORD       CLEAR     58  56  92 W3        30.03S
$$

NEZ041-046>049-061>064-073>077-083>087-300800-
SOUTH CENTRAL NEBRASKA

CITY           SKY/WX    TMP DP  RH WIND       PRES   REMARKS
GRAND ISLAND   CLEAR     63  60  90 W5        29.94R
AURORA         PTCLDY    62  62 100 NW5       29.93R
HASTINGS       PTCLDY    63  57  81 W7        29.94R
HEBRON         CLEAR     64  61  90 W3        29.91R
HOLDREGE       CLEAR     62  58  87 CALM      29.98R
KEARNEY *      CLEAR     63  57  82 W8        29.98R
YORK           PTCLDY    64 N/A N/A NW8       29.92R
$$

NEZ011>018-030>034-042>045-300800-
NORTHEAST NEBRASKA

CITY           SKY/WX    TMP DP  RH WIND       PRES   REMARKS
NORFOLK        PTCLDY    64  60  87 W5        29.90R
ALBION         PTCLDY    63  60  88 NW7       29.92S
BLAIR          CLEAR     66  64  94 W6        29.86S
FREMONT        PTCLDY    66  64  94 CALM      29.87S
TEKAMAH        CLEAR     63  62  97 CALM      29.85R
WAYNE          PTCLDY    64  62  91 NW5       29.88R
$$

NEZ050>053-065>068-078-088>093-300800-
SOUTHEAST NEBRASKA

CITY           SKY/WX    TMP DP  RH WIND       PRES   REMARKS
LINCOLN        CLEAR     65  63  93 CALM      29.89R
OMAHA EPPLEY   CLEAR     67  64  90 W3        29.85R
BEATRICE       CLEAR     65  65 100 CALM      29.88R
FALLS CITY     CLEAR     68  66  93 S5        29.85S
NEBRASKA CITY  CLEAR     66  66 100 W3        29.87R
PLATTSMOUTH    CLEAR     67  64  93 CALM      29.86S
$$

NEZ044-045-051>053-067-300800-
OMAHA AREA

CITY           SKY/WX    TMP DP  RH WIND       PRES   REMARKS
OMAHA EPPLEY   CLEAR     67  64  90 W3        29.85R
BLAIR          CLEAR     66  64  94 W6        29.86S
FREMONT        PTCLDY    66  64  94 CALM      29.87S
MILLARD        CLEAR     66  65  96 CALM      29.86R FOG
OFFUTT AFB     CLEAR     66  66 100 CALM      29.85R
PLATTSMOUTH    CLEAR     67  64  93 CALM      29.86S
WAHOO          PTSUNNY   68  64  86 NW5       29.87S
$$


USA.gov is the U.S. government's official web portal to all federal, state and local government web resources and services.